Date,TemperatureHighF,TemperatureAvgF,TemperatureLowF,DewpointHighF,DewpointAvgF,DewpointLowF,HumidityHigh,HumidityAvg,HumidityLow,PressureMaxIn,PressureMinIn,WindSpeedMaxMPH,WindSpeedAvgMPH,GustSpeedMaxMPH,PrecipitationSumIn
2013-1-1,56.4,42.5,31.9,36.8,31.8,26.3,94,69,33,30.31,30.21,20,4,20,0.00
2013-1-2,59.9,40.5,27.3,38.3,31.8,24.9,93,75,37,30.26,30.15,9,2,9,0.00
2013-1-3,60.6,39.4,27.1,39.9,32.9,25.1,95,81,42,30.30,30.19,6,1,6,0.00
2013-1-4,61.4,42.3,30.3,42.5,36.0,28.8,95,81,45,30.31,30.18,7,1,7,0.00
2013-1-5,50.9,42.0,33.0,46.1,39.0,31.1,95,90,75,30.28,30.09,10,1,10,0.48
2013-1-6,55.9,46.4,36.2,45.0,42.1,34.8,95,86,65,30.21,30.09,12,2,12,0.03
2013-1-7,59.9,44.4,33.7,47.6,40.5,32.3,96,87,60,30.27,30.16,6,1,6,0.00
2013-1-8,62.4,45.9,38.0,51.3,42.8,36.7,96,90,65,30.26,30.14,9,1,9,0.01
2013-1-9,50.5,44.0,37.8,47.2,40.5,33.8,96,88,63,30.17,29.98,22,3,22,0.02
2013-1-10,54.7,40.6,30.3,37.2,33.0,28.8,95,76,43,30.20,30.07,10,3,10,0.00
2013-1-11,53.4,38.5,27.6,39.1,32.8,25.7,94,81,53,30.27,30.12,8,1,8,0.00
2013-1-12,53.0,39.9,29.3,34.3,29.4,23.1,93,69,37,30.27,30.15,9,2,9,0.00
2013-1-13,53.2,38.3,23.1,29.6,20.9,9.2,94,57,20,30.29,30.18,21,4,21,0.00
2013-1-14,57.6,44.7,31.4,29.8,19.4,11.4,83,40,19,30.42,30.26,21,7,21,0.00
2013-1-15,53.9,38.1,27.0,35.2,30.3,24.6,93,76,47,30.50,30.41,12,2,12,0.00
2013-1-16,61.4,40.2,27.1,40.1,33.3,25.6,95,79,42,30.47,30.28,8,1,8,0.00
2013-1-17,67.4,42.0,25.0,43.6,34.5,23.5,95,79,35,30.29,30.15,8,2,8,0.01
2013-1-18,69.3,43.7,26.2,42.0,33.8,24.3,95,73,33,30.25,30.14,8,1,8,0.00
2013-1-19,72.7,47.1,30.9,39.7,31.6,26.4,89,62,22,30.26,30.16,10,2,10,0.00
2013-1-20,70.0,46.2,29.2,40.4,32.9,24.6,88,64,27,30.25,30.12,8,2,8,0.00
2013-1-21,69.0,46.4,30.4,41.4,34.5,27.0,90,67,31,30.19,30.10,10,2,10,0.00
2013-1-22,68.5,47.6,30.9,43.2,35.9,27.9,91,68,29,30.13,30.01,7,2,7,0.00
2013-1-23,52.2,48.9,45.4,49.4,44.7,39.1,94,86,74,30.11,29.97,9,2,9,0.44
2013-1-24,63.7,53.4,48.3,55.3,50.3,46.7,94,90,69,30.20,30.08,12,2,12,0.00
2013-1-25,66.0,55.9,47.7,56.3,51.4,46.3,95,86,65,30.21,30.05,10,2,10,0.00
2013-1-26,62.1,49.7,42.1,50.2,43.8,39.0,95,83,44,30.06,29.96,15,2,15,0.01
2013-1-27,57.6,46.5,38.8,37.2,35.6,32.4,85,67,39,30.18,30.10,7,2,7,0.01
2013-1-28,61.1,46.8,34.5,43.1,37.8,32.1,93,73,41,30.29,30.17,12,3,12,0.00
2013-1-29,65.6,47.5,36.1,46.1,39.6,33.7,92,76,46,30.37,30.26,12,2,12,0.00
2013-1-30,66.7,50.4,37.1,48.9,43.0,35.3,94,78,50,30.36,30.26,12,3,12,0.00
2013-1-31,68.8,48.5,32.6,50.0,41.8,31.2,96,81,45,30.32,30.19,10,2,10,0.00